RYR89EQ LIEE-LIPE

Flight info

Callsign RYR89EQ
Flight time 0h 59m
Altitude 18000
Route KOVAS Q125 DEXUL/N0430F340 DCT ELB DCT MAREL DCT GINAR/N0332F180 L12 LOMED
Aircraft B738/M-SDE3FGIJ1LRWY/SB1

Departure

Time 2026-04-28 08:45
Airport Cagliari Elmas Airport (LIEE)

Arrival

Time 2026-04-28 09:45
Airport Bologna Guglielmo Marconi Airport (LIPE)
Time Latitude Longitude Altitude Speed Heading
2026-04-28 08:19 39.25250 9.05870 14 ft 0 kts 51°
2026-04-28 08:37 39.25249 9.05869 41 ft 2 kts 51°
2026-04-28 08:38 39.25234 9.05843 14 ft 4 kts 51°
2026-04-28 08:38 39.25222 9.05821 16 ft 4 kts 80°
2026-04-28 08:38 39.25228 9.05794 15 ft 4 kts 134°
2026-04-28 08:38 39.25247 9.05772 15 ft 4 kts 138°
2026-04-28 08:39 39.25267 9.05749 14 ft 4 kts 138°
2026-04-28 08:39 39.25275 9.05740 14 ft 1 kts 138°
2026-04-28 08:41 39.25273 9.05742 14 ft 1 kts 138°
2026-04-28 08:41 39.25254 9.05763 15 ft 6 kts 138°
2026-04-28 08:41 39.25206 9.05818 15 ft 12 kts 138°
2026-04-28 08:41 39.25134 9.05901 14 ft 14 kts 135°
2026-04-28 08:42 39.25070 9.05994 14 ft 14 kts 131°
2026-04-28 08:42 39.25008 9.06083 14 ft 13 kts 134°
2026-04-28 08:42 39.24943 9.06160 14 ft 13 kts 140°
2026-04-28 08:42 39.24874 9.06228 14 ft 12 kts 145°
2026-04-28 08:43 39.24799 9.06290 14 ft 14 kts 147°
2026-04-28 08:43 39.24706 9.06365 14 ft 17 kts 148°
2026-04-28 08:43 39.24604 9.06448 14 ft 17 kts 148°
2026-04-28 08:43 39.24504 9.06528 14 ft 16 kts 147°
2026-04-28 08:44 39.24405 9.06586 14 ft 15 kts 180°
2026-04-28 08:44 39.24306 9.06552 15 ft 15 kts 198°
2026-04-28 08:44 39.24247 9.06492 16 ft 10 kts 269°
2026-04-28 08:44 39.24291 9.06420 15 ft 11 kts 318°
2026-04-28 08:45 39.24419 9.06271 14 ft 55 kts 317°
2026-04-28 08:45 39.24895 9.05721 15 ft 125 kts 318°
2026-04-28 08:45 39.25683 9.04800 96 ft 173 kts 316°
2026-04-28 08:45 39.26585 9.03765 777 ft 176 kts 317°
2026-04-28 08:46 39.27610 9.02840 1405 ft 186 kts 342°
2026-04-28 08:46 39.28930 9.02787 1914 ft 200 kts 12°
2026-04-28 08:46 39.30340 9.03095 2397 ft 216 kts 11°
2026-04-28 08:46 39.31873 9.03352 2842 ft 229 kts
2026-04-28 08:47 39.33536 9.03568 3146 ft 251 kts
2026-04-28 08:47 39.35354 9.03767 3555 ft 269 kts
2026-04-28 08:47 39.37234 9.03949 4317 ft 272 kts
2026-04-28 08:47 39.39138 9.04118 5099 ft 276 kts
2026-04-28 08:48 39.41068 9.04280 5886 ft 279 kts
2026-04-28 08:48 39.43028 9.04440 6585 ft 284 kts
2026-04-28 08:48 39.44970 9.04598 7364 ft 284 kts
2026-04-28 08:48 39.46962 9.04782 8088 ft 287 kts
2026-04-28 08:49 39.48963 9.05035 8844 ft 290 kts
2026-04-28 08:49 39.50981 9.05308 9602 ft 292 kts
2026-04-28 08:49 39.52986 9.05578 10284 ft 295 kts
2026-04-28 08:49 39.55102 9.05859 10509 ft 317 kts
2026-04-28 08:50 39.57366 9.06156 10727 ft 336 kts
2026-04-28 08:50 39.59722 9.06463 11228 ft 343 kts
2026-04-28 08:50 39.62101 9.06774 11964 ft 344 kts
2026-04-28 08:50 39.64493 9.07089 12639 ft 348 kts
2026-04-28 08:51 39.66893 9.07640 13314 ft 352 kts 12°
2026-04-28 08:51 39.69275 9.08453 14020 ft 355 kts 14°
2026-04-28 08:51 39.71661 9.09327 14699 ft 357 kts 15°
2026-04-28 08:51 39.74060 9.10193 15405 ft 359 kts 15°
2026-04-28 08:52 39.76481 9.11038 16102 ft 361 kts 15°
2026-04-28 08:52 39.78923 9.11868 16780 ft 363 kts 15°
2026-04-28 08:52 39.81375 9.12689 17459 ft 365 kts 15°
2026-04-28 08:52 39.83819 9.13505 18058 ft 369 kts 15°
2026-04-28 08:53 39.86322 9.14351 18620 ft 373 kts 16°
2026-04-28 08:53 39.88815 9.15313 19185 ft 375 kts 18°
2026-04-28 08:53 39.91306 9.16351 19737 ft 377 kts 18°
2026-04-28 08:53 39.93805 9.17417 20317 ft 379 kts 18°
2026-04-28 08:54 39.96320 9.18494 20851 ft 381 kts 18°
2026-04-28 08:54 39.98853 9.19575 21372 ft 384 kts 18°
2026-04-28 08:54 40.01372 9.20645 21896 ft 386 kts 18°
2026-04-28 08:54 40.03948 9.21734 22390 ft 389 kts 18°
2026-04-28 08:55 40.06535 9.22824 22899 ft 392 kts 17°
2026-04-28 08:55 40.09135 9.23918 23379 ft 395 kts 17°
2026-04-28 08:55 40.11761 9.25023 23799 ft 398 kts 17°
2026-04-28 08:55 40.14412 9.26138 24201 ft 400 kts 17°
2026-04-28 08:56 40.17074 9.27259 24591 ft 403 kts 17°
2026-04-28 08:56 40.19750 9.28385 24971 ft 405 kts 17°
2026-04-28 08:56 40.22444 9.29521 25344 ft 408 kts 17°
2026-04-28 08:56 40.25159 9.30666 25712 ft 410 kts 17°
2026-04-28 08:57 40.27851 9.31802 26060 ft 412 kts 17°
2026-04-28 08:57 40.30596 9.32962 26410 ft 415 kts 17°
2026-04-28 08:57 40.33349 9.34127 26762 ft 417 kts 17°
2026-04-28 08:57 40.36120 9.35300 27105 ft 419 kts 17°
2026-04-28 08:58 40.38902 9.36479 27442 ft 421 kts 17°
2026-04-28 08:58 40.41700 9.37666 27761 ft 423 kts 17°
2026-04-28 08:58 40.44509 9.38858 28073 ft 425 kts 17°
2026-04-28 08:58 40.47333 9.40058 28390 ft 427 kts 17°
2026-04-28 08:59 40.50173 9.41265 28722 ft 429 kts 17°
2026-04-28 08:59 40.52974 9.42458 29135 ft 427 kts 17°
2026-04-28 08:59 40.55796 9.43660 29625 ft 425 kts 17°
2026-04-28 08:59 40.58603 9.44857 30064 ft 423 kts 17°
2026-04-28 09:00 40.61404 9.46053 30393 ft 423 kts 17°
2026-04-28 09:00 40.64211 9.47252 30673 ft 424 kts 17°
2026-04-28 09:00 40.67014 9.48450 30972 ft 424 kts 16°
2026-04-28 09:00 40.69815 9.49648 31296 ft 423 kts 16°
2026-04-28 09:01 40.72621 9.50850 31596 ft 423 kts 16°
2026-04-28 09:01 40.75418 9.52048 31903 ft 423 kts 16°
2026-04-28 09:01 40.78221 9.53251 32192 ft 423 kts 16°
2026-04-28 09:01 40.81019 9.54452 32463 ft 423 kts 16°
2026-04-28 09:02 40.83819 9.55656 32729 ft 423 kts 16°
2026-04-28 09:02 40.86627 9.56863 33013 ft 423 kts 16°
2026-04-28 09:02 40.89424 9.58068 33287 ft 423 kts 16°
2026-04-28 09:02 40.92193 9.59261 33555 ft 423 kts 16°
2026-04-28 09:03 40.94991 9.60468 33797 ft 423 kts 16°
2026-04-28 09:03 40.97783 9.61673 34042 ft 423 kts 16°
2026-04-28 09:03 41.00598 9.62889 34061 ft 426 kts 16°
2026-04-28 09:04 41.06221 9.65322 34073 ft 423 kts 16°
2026-04-28 09:04 41.11806 9.67743 34087 ft 421 kts 16°
2026-04-28 09:05 41.17321 9.70138 34078 ft 419 kts 16°
2026-04-28 09:05 41.22860 9.72547 34077 ft 418 kts 16°
2026-04-28 09:06 41.28400 9.74960 34079 ft 418 kts 16°
2026-04-28 09:06 41.33938 9.77377 34079 ft 419 kts 16°
2026-04-28 09:07 41.39489 9.79805 34087 ft 421 kts 16°
2026-04-28 09:07 41.45074 9.82252 34085 ft 423 kts 16°
2026-04-28 09:08 41.50643 9.84696 34081 ft 424 kts 16°
2026-04-28 09:08 41.56264 9.87167 34080 ft 426 kts 16°
2026-04-28 09:09 41.61896 9.89648 34082 ft 426 kts 16°
2026-04-28 09:09 41.67540 9.92140 34080 ft 427 kts 16°
2026-04-28 09:10 41.73156 9.94623 34081 ft 427 kts 16°
2026-04-28 09:10 41.78790 9.97119 34081 ft 426 kts 16°
2026-04-28 09:11 41.84420 9.99617 34086 ft 425 kts 16°
2026-04-28 09:11 41.90043 10.02117 34083 ft 425 kts 16°
2026-04-28 09:12 41.95625 10.04604 34082 ft 424 kts 16°
2026-04-28 09:12 42.01226 10.07103 34084 ft 423 kts 16°
2026-04-28 09:13 42.06821 10.09605 34085 ft 423 kts 16°
2026-04-28 09:13 42.12407 10.12107 34086 ft 423 kts 16°
2026-04-28 09:14 42.17960 10.14598 34081 ft 423 kts 16°
2026-04-28 09:14 42.23551 10.17112 34089 ft 423 kts 16°
2026-04-28 09:15 42.29143 10.19631 34088 ft 423 kts 16°
2026-04-28 09:15 42.34702 10.22139 34087 ft 424 kts 16°
2026-04-28 09:16 42.40299 10.24670 34088 ft 424 kts 16°
2026-04-28 09:16 42.44962 10.26782 34086 ft 425 kts 16°
2026-04-28 09:17 42.50571 10.29327 34091 ft 425 kts 15°
2026-04-28 09:17 42.56180 10.31876 34091 ft 425 kts 15°
2026-04-28 09:18 42.61800 10.34437 34086 ft 426 kts 15°
2026-04-28 09:18 42.67389 10.36987 34086 ft 426 kts 15°
2026-04-28 09:19 42.73026 10.39564 34093 ft 426 kts 15°
2026-04-28 09:19 42.78646 10.42141 34092 ft 426 kts 15°
2026-04-28 09:20 42.84265 10.44724 34083 ft 426 kts 15°
2026-04-28 09:20 42.89850 10.47297 34090 ft 426 kts 15°
2026-04-28 09:20 42.92666 10.48596 33896 ft 428 kts 15°
2026-04-28 09:21 42.95471 10.49892 33630 ft 422 kts 15°
2026-04-28 09:21 42.98231 10.51170 33140 ft 416 kts 15°
2026-04-28 09:21 43.00962 10.52435 32647 ft 413 kts 15°
2026-04-28 09:21 43.03680 10.53692 32099 ft 411 kts 15°
2026-04-28 09:22 43.06388 10.54947 31533 ft 409 kts 16°
2026-04-28 09:22 43.09088 10.56198 30972 ft 408 kts 16°
2026-04-28 09:22 43.11776 10.57446 30392 ft 408 kts 16°
2026-04-28 09:22 43.14468 10.58697 29764 ft 408 kts 16°
2026-04-28 09:23 43.17124 10.59932 29102 ft 407 kts 16°
2026-04-28 09:23 43.19783 10.61172 28671 ft 401 kts 16°
2026-04-28 09:23 43.22430 10.62406 28199 ft 404 kts 16°
2026-04-28 09:23 43.25138 10.63666 27740 ft 417 kts 16°
2026-04-28 09:24 43.27906 10.64957 27237 ft 419 kts 16°
2026-04-28 09:24 43.30653 10.66244 26739 ft 414 kts 16°
2026-04-28 09:24 43.33367 10.67516 26267 ft 408 kts 16°
2026-04-28 09:24 43.36038 10.68767 25804 ft 403 kts 16°
2026-04-28 09:25 43.38673 10.70003 25347 ft 398 kts 16°
2026-04-28 09:25 43.41245 10.71209 24899 ft 394 kts 16°
2026-04-28 09:25 43.43821 10.72418 24453 ft 389 kts 16°
2026-04-28 09:25 43.46372 10.73617 24018 ft 385 kts 16°
2026-04-28 09:26 43.48903 10.74808 23557 ft 382 kts 16°
2026-04-28 09:26 43.51412 10.75988 23052 ft 379 kts 16°
2026-04-28 09:26 43.53890 10.77156 22589 ft 375 kts 16°
2026-04-28 09:26 43.56357 10.78319 22144 ft 373 kts 17°
2026-04-28 09:27 43.61285 10.80644 21296 ft 381 kts 17°
2026-04-28 09:27 43.63816 10.81840 20842 ft 386 kts 17°
2026-04-28 09:27 43.66348 10.83041 20387 ft 382 kts 17°
2026-04-28 09:28 43.68845 10.84227 19946 ft 377 kts 17°
2026-04-28 09:28 43.71313 10.85400 19515 ft 372 kts 17°
2026-04-28 09:28 43.73715 10.86543 19086 ft 368 kts 17°
2026-04-28 09:28 43.76127 10.87690 18664 ft 364 kts 17°
2026-04-28 09:29 43.78513 10.88826 18219 ft 361 kts 17°
2026-04-28 09:29 43.80877 10.89952 17747 ft 357 kts 17°
2026-04-28 09:29 43.83218 10.91069 17306 ft 354 kts 17°
2026-04-28 09:29 43.85532 10.92167 16881 ft 349 kts 17°
2026-04-28 09:30 43.87820 10.93248 16467 ft 345 kts 17°
2026-04-28 09:30 43.90081 10.94316 16060 ft 342 kts 17°
2026-04-28 09:30 43.92318 10.95374 15664 ft 338 kts 17°
2026-04-28 09:30 43.94539 10.96426 15273 ft 337 kts 17°
2026-04-28 09:31 43.96761 10.97478 14882 ft 337 kts 17°
2026-04-28 09:31 43.98993 10.98537 14486 ft 342 kts 18°
2026-04-28 09:31 44.01264 10.99613 14088 ft 346 kts 18°
2026-04-28 09:31 44.03534 11.00713 13668 ft 344 kts 19°
2026-04-28 09:32 44.05720 11.01910 13297 ft 338 kts 21°
2026-04-28 09:32 44.07883 11.03153 12875 ft 334 kts 22°
2026-04-28 09:32 44.10018 11.04383 12463 ft 330 kts 21°
2026-04-28 09:32 44.12134 11.05589 12065 ft 326 kts 21°
2026-04-28 09:33 44.14229 11.06773 11665 ft 323 kts 21°
2026-04-28 09:33 44.16305 11.07942 11270 ft 321 kts 21°
2026-04-28 09:33 44.18368 11.09104 10871 ft 318 kts 21°
2026-04-28 09:33 44.20402 11.10247 10658 ft 310 kts 21°
2026-04-28 09:34 44.22369 11.11352 10499 ft 299 kts 21°
2026-04-28 09:34 44.24269 11.12423 10359 ft 289 kts 21°
2026-04-28 09:34 44.26087 11.13443 10228 ft 282 kts 21°
2026-04-28 09:34 44.27895 11.14463 10129 ft 278 kts 21°
2026-04-28 09:35 44.29685 11.15471 10104 ft 277 kts 21°
2026-04-28 09:35 44.31460 11.16473 10089 ft 272 kts 21°
2026-04-28 09:35 44.33189 11.17451 9937 ft 265 kts 21°
2026-04-28 09:35 44.34909 11.18424 9526 ft 267 kts 21°
2026-04-28 09:36 44.36635 11.19399 9152 ft 268 kts 22°
2026-04-28 09:36 44.38370 11.20382 8754 ft 269 kts 22°
2026-04-28 09:36 44.40115 11.21369 8390 ft 270 kts 22°
2026-04-28 09:36 44.41886 11.22213 8042 ft 268 kts
2026-04-28 09:37 44.43707 11.21924 7700 ft 265 kts 336°
2026-04-28 09:37 44.45175 11.20438 7407 ft 259 kts 310°
2026-04-28 09:37 44.46132 11.18330 7099 ft 256 kts 295°
2026-04-28 09:37 44.46926 11.16100 6836 ft 255 kts 295°
2026-04-28 09:38 44.47721 11.13893 6515 ft 257 kts 296°
2026-04-28 09:38 44.48532 11.11657 6179 ft 257 kts 296°
2026-04-28 09:38 44.49333 11.09435 5900 ft 254 kts 295°
2026-04-28 09:38 44.50119 11.07235 5641 ft 251 kts 295°
2026-04-28 09:39 44.50894 11.05063 5377 ft 248 kts 295°
2026-04-28 09:39 44.51661 11.02916 5145 ft 245 kts 295°
2026-04-28 09:39 44.52412 11.00815 5034 ft 236 kts 295°
2026-04-28 09:39 44.53380 10.99033 4987 ft 229 kts 326°
2026-04-28 09:40 44.54895 10.98420 4738 ft 232 kts
2026-04-28 09:40 44.56403 10.99062 4499 ft 230 kts 31°
2026-04-28 09:40 44.57664 11.00427 4199 ft 229 kts 44°
2026-04-28 09:40 44.58798 11.01970 3950 ft 225 kts 45°
2026-04-28 09:41 44.59912 11.03506 3555 ft 225 kts 45°
2026-04-28 09:41 44.60871 11.05164 3397 ft 211 kts 68°
2026-04-28 09:41 44.60966 11.07100 3251 ft 195 kts 107°
2026-04-28 09:41 44.60522 11.08864 3020 ft 191 kts 110°
2026-04-28 09:42 44.60058 11.10601 2760 ft 189 kts 113°
2026-04-28 09:42 44.59512 11.12264 2512 ft 186 kts 116°
2026-04-28 09:42 44.58938 11.13870 2253 ft 182 kts 116°
2026-04-28 09:42 44.58375 11.15408 2014 ft 178 kts 117°
2026-04-28 09:43 44.57862 11.16963 1804 ft 175 kts 115°
2026-04-28 09:43 44.57288 11.18472 1567 ft 174 kts 117°
2026-04-28 09:43 44.56738 11.19976 1323 ft 171 kts 116°
2026-04-28 09:43 44.56219 11.21419 1105 ft 159 kts 116°
2026-04-28 09:44 44.55740 11.22752 896 ft 151 kts 115°
2026-04-28 09:44 44.55277 11.24044 698 ft 147 kts 116°
2026-04-28 09:44 44.54817 11.25325 518 ft 149 kts 115°
2026-04-28 09:44 44.54344 11.26635 309 ft 151 kts 116°
2026-04-28 09:45 44.53882 11.27928 134 ft 146 kts 115°
2026-04-28 09:45 44.53493 11.29008 124 ft 95 kts 116°
2026-04-28 09:45 44.53312 11.29519 126 ft 25 kts 124°
2026-04-28 09:45 44.53227 11.29618 130 ft 9 kts 145°
2026-04-28 09:46 44.53176 11.29668 125 ft 9 kts 146°
2026-04-28 09:46 44.53138 11.29703 129 ft 6 kts 147°
2026-04-28 09:46 44.53101 11.29737 124 ft 6 kts 147°
2026-04-28 09:46 44.53065 11.29770 127 ft 6 kts 147°
2026-04-28 09:47 44.53032 11.29765 125 ft 6 kts 253°
2026-04-28 09:47 44.53047 11.29700 128 ft 9 kts 296°
2026-04-28 09:47 44.53082 11.29600 127 ft 14 kts 296°
2026-04-28 09:47 44.53133 11.29460 130 ft 17 kts 297°
2026-04-28 09:48 44.53183 11.29322 127 ft 15 kts 296°
2026-04-28 09:48 44.53204 11.29214 126 ft 10 kts 232°
2026-04-28 09:48 44.53143 11.29166 128 ft 10 kts 207°
2026-04-28 09:48 44.53094 11.29132 125 ft 2 kts 206°
2026-04-28 09:49 44.53092 11.29130 125 ft 0 kts 206°
2026-04-28 09:49 44.53084 11.29125 126 ft 4 kts 206°
2026-04-28 09:49 44.53057 11.29147 128 ft 6 kts 118°
2026-04-28 09:49 44.53037 11.29202 127 ft 6 kts 117°
2026-04-28 09:50 44.53033 11.29213 129 ft 0 kts 117°